Regional Weather Roundup
Issued by NWS

Home | Current Version | Previous Version | Graphics & Text | Print | Product List | Glossary On
Versions: 1 2 3 4 5 6 7 8 9 10 11 12 13 14 15 16 17 18 19 20 21 22 23 24 25 26 27 28 29 30 31 32 33 34 35 36 37 38 39 40 41 42 43 44 45 46 47 48 49 50
000
ASUS45 KBOU 310807
RWRCO

WEATHER ROUNDUP FOR COLORADO
NATIONAL WEATHER SERVICE DENVER/BOULDER CO
200 AM MDT THU JUL 31 2014

NOTE: "FAIR" INDICATES FEW OR NO CLOUDS BELOW 12000 FEET WITH NO
SIGNIFICANT WEATHER AND/OR OBSTRUCTIONS TO VISIBILITY.

COZ001>005-013-030-031-310900-
...NORTHWEST COLORADO...

CITY           SKY/WX    TMP DP  RH WIND       PRES   REMARKS
CRAIG          NOT AVBL
HAYDEN         PTCLDY    55  48  76 SE8       30.31F
MEEKER         MOCLDY    57  53  86 E3        30.32R
MOUNT WERNER   NOT AVBL
STEAMBOAT SPGS PTCLDY    53  51  95 CALM      30.34S
WALDEN         CLOUDY    50  46  87 N3        30.42S
$$

COZ006>008-011-310900-
...WEST CENTRAL VALLEYS...

CITY           SKY/WX    TMP DP  RH WIND       PRES   REMARKS
GRAND JUNCTION PTCLDY    64  58  80 NW5       30.18F
MONTROSE       PTCLDY    64  54  69 SE6       30.26F
EAGLE          MOCLDY    55  55 100 NE6       30.35S
RIFLE          PTCLDY    60  56  86 CALM      30.24F
DELTA          PTCLDY    68  56  66 CALM      30.21R
NUCLA          PTCLDY    63  55  77 SE6       30.28S
$$

COZ017>023-064>068-310900-
...SOUTHWEST COLORADO...

CITY           SKY/WX    TMP DP  RH WIND       PRES   REMARKS
DURANGO        CLEAR     61  50  67 NW7       30.25S
CORTEZ         CLEAR     60  52  74 NE6       30.21F
PAGOSA SPRINGS CLEAR     54  48  81 CALM      30.34S
TELLURIDE      PTCLDY    54  48  82 SE3       30.45F
WOLF CREEK PAS NOT AVBL
$$

COZ009-010-012-014-032>034-037-058>063-310900-
...CENTRAL COLORADO...

CITY           SKY/WX    TMP DP  RH WIND       PRES   REMARKS
ASPEN          CLOUDY    54  52  93 SW5       30.37F
BUENA VISTA    CLOUDY    53  52  95 E6        30.44F
COPPER MTN     CLOUDY    46  41  81 S16       30.64S HAZE
BERTHOUD PASS  CLOUDY    37  37 100 W7        30.67F
COTTONWOOD PAS CLOUDY    50  48  93 CALM      30.53F FOG
GUNNISON       MOCLDY    57  48  72 CALM      30.39F
KREMMLING      CLOUDY    54  50  87 CALM      30.39F
LEADVILLE      CLOUDY    47  46  97 CALM      30.51F
MONARCH PASS   FOG       41  39  93 NE8       30.74F VSB 1/4
SALIDA         CLOUDY    55  53  95 CALM      30.49F
SUNLIGHT       PTCLDY    50  46  87 CALM      30.57F
WILKERSON PASS FOG       43  41  93 SW5       30.64S VSB 1/2
$$

COZ069>075-310900-
...SAN LUIS VALLEY/SANGRE DE CRISTO MOUNTAINS...

CITY           SKY/WX    TMP DP  RH WIND       PRES   REMARKS
ALAMOSA        MOCLDY    54  51  90 SE6       30.38S
LA VETA PASS   MIX PCPN  45  45 100 E7        30.54F VSB 1/4
SAGUACHE       CLOUDY    55  54  94 CALM      30.41S
$$

COZ035-036-038>040-310900-
...NORTHERN COLORADO FRONT RANGE...

CITY           SKY/WX    TMP DP  RH WIND       PRES   REMARKS
DENVER INTL AP CLOUDY    58  56  93 S6        30.30F
DMNS CITY PARK   N/A     57  56  96 S1        30.30F
AURORA         MOCLDY    56  56 100 S7        30.32F
FRONT RANGE AP CLOUDY    59  57  94 S8        30.31F
ERIE MUNI ARPT CLOUDY    58  57  97 CALM      30.28F
BOULDER MUN AP MOCLDY    55  55 100 CALM      30.29F
CENTENNIAL     CLOUDY    57  54  89 SE6       30.32F
BROOMFIELD     MOCLDY    55  55 100 CALM      30.32S FOG
FORT COLLINS   CLOUDY    59  57  94 CALM      30.29F
LONGMONT       CLOUDY    60  58  93 CALM      30.30F
$$

COZ041-046-047-076>085-087-088-310900-
...PIKES PEAK/PALMER DIVIDE AND SOUTHERN FOOTHILLS...

CITY           SKY/WX    TMP DP  RH WIND       PRES   REMARKS
COLO. SPRINGS  CLOUDY    57  53  86 CALM      30.37F
A. F. ACADEMY  MOCLDY    54  54 100 S2        30.38F
ELLICOTT       LGT RAIN  57  55  93 SW7       30.36F
FALCON         CLOUDY    53  52  97 SW3       30.40S
FORT CARSON    CLOUDY    56  56  99 SE5       30.34F
LIMON          CLOUDY    56  55  97 CALM      30.32F
MONUMENT HILL  CLOUDY    52  50  93 S3        30.37F
TRINIDAD       CLOUDY    58  55  90 CALM      30.34F
$$

COZ042>045-048>051-090-091-310900-
...NORTHEAST COLORADO...

CITY           SKY/WX    TMP DP  RH WIND       PRES   REMARKS
GREELEY ARPT   NOT AVBL
AKRON          CLOUDY    58  56  93 W8        30.28F
BURLINGTON     CLOUDY    57  54  89 W6        30.28S
WRAY             N/A    N/A N/A N/A W6        30.24F
STERLING       CLOUDY    61  61 100 S5        30.24F
HOLYOKE        CLEAR     61  59  94 W5        30.23F
FORT MORGAN    CLOUDY    58  56  93 S3        30.28S
$$

COZ086-089-092>099-310900-
...SOUTHEAST COLORADO...

CITY           SKY/WX    TMP DP  RH WIND       PRES   REMARKS
PUEBLO         CLOUDY    62  59  90 CALM      30.30F
LA JUNTA       PTCLDY    61  59  93 W3        30.28F
LAMAR          PTCLDY    57  56  96 S5        30.25F
SPRINGFIELD      N/A     54  53  97 NW3       30.28F
$$



USA.gov is the U.S. government's official web portal to all federal, state and local government web resources and services.